Hourly Data Report for September 06, 2020

BRIER ISLAND
NOVA SCOTIA
Current Station Operator: ECCC - MSC

44°17'09.000" N
66°20'48.000" W
15.80 m
8200604
71988
WVU

Download Data

Hourly Data (September 2020)
Hourly Data Report for September 6, 2020
TIME Temp Definition
°C
Dew Point Definition
°C
Rel Hum Definition
%
Wind Dir Definition
10's deg

Wind Spd Definition
km/h
Visibility Definition
km
Stn Press Definition
kPa
Hmdx Definition


Wind Chill Definition


Weather Definition


00:00 15.0 14.2 95 22 15   101.81     LegendNANA
01:00 14.5 13.8 95 23 14   101.80     LegendNANA
02:00 14.2 13.7 97 23 8   101.83     LegendNANA
03:00 13.4 13.4 100 17 10   101.84     LegendNANA
04:00 13.0 13.0 100 15 10   101.83     LegendNANA
05:00 13.1 13.1 100 15 15   101.86     LegendNANA
06:00 13.2 13.2 100 16 16   101.89     LegendNANA
07:00 13.7 13.7 100 15 13   101.92     LegendNANA
08:00 14.8 14.6 99 15 14   101.92     LegendNANA
09:00 16.3 15.1 93 15 18   101.93     LegendNANA
10:00 15.4 14.9 97 15 13   101.94     LegendNANA
11:00 16.8 15.4 91 15 15   101.86     LegendNANA
12:00 18.0 15.7 87 15 8   101.90     LegendNANA
13:00 16.2 15.2 94 15 18   101.98     LegendNANA
14:00 16.6 14.9 90 15 19   101.98     LegendNANA
15:00 17.1 15.3 89 15 12   101.98     LegendNANA
16:00 17.7 15.2 85 16 9   102.00     LegendNANA
17:00 15.3 14.7 96 15 13   102.01     LegendNANA
18:00 14.1 14.0 99 17 8   102.03     LegendNANA
19:00 12.8 LegendMM LegendMM 15 8   102.05     LegendNANA
20:00 13.7 13.7 100 17 12   102.10     LegendNANA
21:00 12.3 12.3 100 15 9   102.14     LegendNANA
22:00 12.2 12.2 100 14 17   102.18     LegendNANA
23:00 12.0 12.0 100 16 9   102.16     LegendNANA

Notes on Data Quality.

Legend

  • E = Estimated
  • M = Missing
  • NA = Not Available*
  • [empty] = Indicates an unobserved value
Date modified: